This is the latest recevied weather packets stored in our database for station/object R2AKT-13. If no packets are shown the sender has not sent any weather packets the latest 1 day(s).
| Time | Temp. | Humidity | Pressure | Rain* | Wind** | Luminosity | Snow |
|---|---|---|---|---|---|---|---|
| 1778022796 | 16.67° C | 63% | 983.2 hPa | - | 0 m/s | - | - |
| 1778022229 | 16.67° C | 62% | 983.3 hPa | - | 0.45 m/s, 217° | - | - |
| 1778021644 | 16.67° C | 63% | 983.3 hPa | - | 1.34 m/s, 186° | - | - |
| 1778021074 | 16.67° C | 62% | 983.3 hPa | - | 0.89 m/s, 200° | - | - |
| 1778020584 | 16.67° C | 63% | 983.3 hPa | - | 0.45 m/s, 223° | - | - |
| 1778020054 | 16.67° C | 63% | 983.4 hPa | - | 0 m/s | - | - |
| 1778019524 | 16.67° C | 64% | 983.5 hPa | - | 0 m/s | - | - |
| 1778019039 | 16.67° C | 63% | 983.5 hPa | - | 0.89 m/s, 191° | - | - |
| 1778018529 | 16.67° C | 62% | 983.5 hPa | - | 0.45 m/s, 226° | - | - |
| 1778018048 | 17.22° C | 62% | 983.5 hPa | - | 0.45 m/s, 203° | - | - |
| 1778017454 | 17.22° C | 61% | 983.5 hPa | - | 1.34 m/s, 177° | - | - |
| 1778016934 | 16.67° C | 64% | 983.5 hPa | - | 0.45 m/s, 183° | - | - |
| 1778016374 | 16.67° C | 65% | 983.6 hPa | - | 0.89 m/s, 177° | - | - |
| 1778015864 | 16.67° C | 66% | 983.5 hPa | - | 0.89 m/s, 163° | - | - |
| 1778015264 | 16.67° C | 67% | 983.5 hPa | - | 1.34 m/s, 150° | - | - |
| 1778014754 | 16.67° C | 66% | 983.5 hPa | - | 0.89 m/s, 154° | - | - |
| 1778014228 | 16.67° C | 65% | 983.6 hPa | - | 0.89 m/s, 159° | - | - |
| 1778013664 | 17.78° C | 61% | 983.6 hPa | - | 1.34 m/s, 172° | - | - |
| 1778013144 | 17.22° C | 62% | 983.6 hPa | - | 0.89 m/s, 169° | - | - |
| 1778012544 | 17.22° C | 63% | 983.6 hPa | - | 0.45 m/s, 168° | - | - |
| 1778012054 | 17.22° C | 63% | 983.6 hPa | - | 0.45 m/s, 160° | - | - |
| 1778011504 | 17.78° C | 60% | 983.5 hPa | - | 1.79 m/s, 162° | - | - |
| 1778010949 | 18.33° C | 59% | 983.7 hPa | - | 1.79 m/s, 169° | - | - |
| 1778010399 | 17.78° C | 61% | 983.6 hPa | - | 1.34 m/s, 162° | - | - |
| 1778009814 | 17.78° C | 61% | 983.6 hPa | - | 1.79 m/s, 158° | - | - |
* Rain since midnight (hover to see other rain measurements)
** Current wind speed in m/s (hover to see current wind gust speed)